owner,sensor,date,latitude,longitude,air_temperature,qcFlag 
COMPS,ioos:station:USF.COMPS:ARP:1,2019-07-01T00:54:00,28.4330,-82.6670,33.91,11111222 
COMPS,ioos:station:USF.COMPS:ARP:1,2019-07-01T01:54:00,28.4330,-82.6670,34.05,11111222 
COMPS,ioos:station:USF.COMPS:ARP:1,2019-07-01T02:54:00,28.4330,-82.6670,34.22,11111222 
COMPS,ioos:station:USF.COMPS:ARP:1,2019-07-01T03:54:00,28.4330,-82.6670,34.28,11111222 
COMPS,ioos:station:USF.COMPS:ARP:1,2019-07-01T04:54:00,28.4330,-82.6670,34.3,11111222 
COMPS,ioos:station:USF.COMPS:ARP:1,2019-07-01T05:54:00,28.4330,-82.6670,34.42,11111222 
COMPS,ioos:station:USF.COMPS:ARP:1,2019-07-01T06:54:00,28.4330,-82.6670,34.42,11111222 
COMPS,ioos:station:USF.COMPS:ARP:1,2019-07-01T07:54:00,28.4330,-82.6670,34.39,11111222 
COMPS,ioos:station:USF.COMPS:ARP:1,2019-07-01T08:54:00,28.4330,-82.6670,34.39,11111222 
COMPS,ioos:station:USF.COMPS:ARP:1,2019-07-01T09:54:00,28.4330,-82.6670,34.16,11111222 
COMPS,ioos:station:USF.COMPS:ARP:1,2019-07-01T10:54:00,28.4330,-82.6670,34.24,11111222 
COMPS,ioos:station:USF.COMPS:ARP:1,2019-07-01T11:54:00,28.4330,-82.6670,34.43,11111222 
COMPS,ioos:station:USF.COMPS:ARP:1,2019-07-01T12:54:00,28.4330,-82.6670,34.73,11111222 
COMPS,ioos:station:USF.COMPS:ARP:1,2019-07-01T14:54:00,28.4330,-82.6670,35.77,11111222 
COMPS,ioos:station:USF.COMPS:ARP:1,2019-07-01T15:54:00,28.4330,-82.6670,35.48,11111222 
COMPS,ioos:station:USF.COMPS:ARP:1,2019-07-01T16:54:00,28.4330,-82.6670,34.33,11111222 
COMPS,ioos:station:USF.COMPS:ARP:1,2019-07-01T17:54:00,28.4330,-82.6670,34.89,11111222 
COMPS,ioos:station:USF.COMPS:ARP:1,2019-07-01T18:54:00,28.4330,-82.6670,35.14,11111222 
COMPS,ioos:station:USF.COMPS:ARP:1,2019-07-01T19:54:00,28.4330,-82.6670,35.11,11111222 
COMPS,ioos:station:USF.COMPS:ARP:1,2019-07-01T20:54:00,28.4330,-82.6670,35.12,11111222 
COMPS,ioos:station:USF.COMPS:ARP:1,2019-07-01T21:54:00,28.4330,-82.6670,35.09,11111222 
COMPS,ioos:station:USF.COMPS:ARP:1,2019-07-01T22:54:00,28.4330,-82.6670,35.17,11111222 
COMPS,ioos:station:USF.COMPS:ARP:1,2019-07-01T23:54:00,28.4330,-82.6670,34.76,11111222 
COMPS,ioos:station:USF.COMPS:ARP:1,2019-07-02T00:54:00,28.4330,-82.6670,34.61,11111222 
COMPS,ioos:station:USF.COMPS:ARP:1,2019-07-02T01:54:00,28.4330,-82.6670,34.66,11111222 
COMPS,ioos:station:USF.COMPS:ARP:1,2019-07-02T02:54:00,28.4330,-82.6670,34.55,11111222 
COMPS,ioos:station:USF.COMPS:ARP:1,2019-07-02T03:54:00,28.4330,-82.6670,34.68,11111222 
COMPS,ioos:station:USF.COMPS:ARP:1,2019-07-02T04:54:00,28.4330,-82.6670,34.6,11111222 
COMPS,ioos:station:USF.COMPS:ARP:1,2019-07-02T05:54:00,28.4330,-82.6670,34.67,11111222 
COMPS,ioos:station:USF.COMPS:ARP:1,2019-07-02T06:54:00,28.4330,-82.6670,34.48,11111222 
COMPS,ioos:station:USF.COMPS:ARP:1,2019-07-02T07:54:00,28.4330,-82.6670,34.54,11111222 
COMPS,ioos:station:USF.COMPS:ARP:1,2019-07-02T08:54:00,28.4330,-82.6670,34.19,11111222 
COMPS,ioos:station:USF.COMPS:ARP:1,2019-07-02T09:54:00,28.4330,-82.6670,34.41,11111222 
COMPS,ioos:station:USF.COMPS:ARP:1,2019-07-02T10:54:00,28.4330,-82.6670,34.41,11111222 
COMPS,ioos:station:USF.COMPS:ARP:1,2019-07-02T11:54:00,28.4330,-82.6670,34.42,11111222 
COMPS,ioos:station:USF.COMPS:ARP:1,2019-07-02T12:54:00,28.4330,-82.6670,34.85,11111222 
COMPS,ioos:station:USF.COMPS:ARP:1,2019-07-02T13:54:00,28.4330,-82.6670,35.33,11111222 
COMPS,ioos:station:USF.COMPS:ARP:1,2019-07-02T14:54:00,28.4330,-82.6670,35.51,11111222 
COMPS,ioos:station:USF.COMPS:ARP:1,2019-07-02T15:54:00,28.4330,-82.6670,35.27,11111222 
COMPS,ioos:station:USF.COMPS:ARP:1,2019-07-02T16:54:00,28.4330,-82.6670,35.37,11111222 
COMPS,ioos:station:USF.COMPS:ARP:1,2019-07-02T17:54:00,28.4330,-82.6670,35.56,11111222 
COMPS,ioos:station:USF.COMPS:ARP:1,2019-07-02T18:54:00,28.4330,-82.6670,35.21,11111222 
COMPS,ioos:station:USF.COMPS:ARP:1,2019-07-02T19:54:00,28.4330,-82.6670,35.25,11111222 
COMPS,ioos:station:USF.COMPS:ARP:1,2019-07-02T20:54:00,28.4330,-82.6670,35.19,11111222 
COMPS,ioos:station:USF.COMPS:ARP:1,2019-07-02T21:54:00,28.4330,-82.6670,35.29,11111222 
COMPS,ioos:station:USF.COMPS:ARP:1,2019-07-02T22:54:00,28.4330,-82.6670,35.32,11111222 
COMPS,ioos:station:USF.COMPS:ARP:1,2019-07-02T23:54:00,28.4330,-82.6670,35.15,11111222 
COMPS,ioos:station:USF.COMPS:ARP:1,2019-07-03T00:54:00,28.4330,-82.6670,34.84,11111222 
COMPS,ioos:station:USF.COMPS:ARP:1,2019-07-03T01:54:00,28.4330,-82.6670,34.76,11111222 
COMPS,ioos:station:USF.COMPS:ARP:1,2019-07-03T02:54:00,28.4330,-82.6670,34.85,11111222 
COMPS,ioos:station:USF.COMPS:ARP:1,2019-07-03T03:54:00,28.4330,-82.6670,34.91,11111222 
COMPS,ioos:station:USF.COMPS:ARP:1,2019-07-03T04:54:00,28.4330,-82.6670,34.81,11111222 
COMPS,ioos:station:USF.COMPS:ARP:1,2019-07-03T05:54:00,28.4330,-82.6670,34.82,11111222 
COMPS,ioos:station:USF.COMPS:ARP:1,2019-07-03T06:54:00,28.4330,-82.6670,34.85,11111222 
COMPS,ioos:station:USF.COMPS:ARP:1,2019-07-03T07:54:00,28.4330,-82.6670,34.72,11111222 
COMPS,ioos:station:USF.COMPS:ARP:1,2019-07-03T08:54:00,28.4330,-82.6670,34.61,11111222 
COMPS,ioos:station:USF.COMPS:ARP:1,2019-07-03T09:54:00,28.4330,-82.6670,34.61,11111222 
COMPS,ioos:station:USF.COMPS:ARP:1,2019-07-03T10:54:00,28.4330,-82.6670,34.64,11111222 
COMPS,ioos:station:USF.COMPS:ARP:1,2019-07-03T11:54:00,28.4330,-82.6670,35.67,11111222 
COMPS,ioos:station:USF.COMPS:ARP:1,2019-07-03T12:54:00,28.4330,-82.6670,35.91,11111222 
COMPS,ioos:station:USF.COMPS:ARP:1,2019-07-03T13:54:00,28.4330,-82.6670,35.5,11111222 
COMPS,ioos:station:USF.COMPS:ARP:1,2019-07-03T14:54:00,28.4330,-82.6670,35.96,11111222 
COMPS,ioos:station:USF.COMPS:ARP:1,2019-07-03T15:54:00,28.4330,-82.6670,35.53,11111222 
COMPS,ioos:station:USF.COMPS:ARP:1,2019-07-03T16:54:00,28.4330,-82.6670,35.29,11111222 
COMPS,ioos:station:USF.COMPS:ARP:1,2019-07-03T17:54:00,28.4330,-82.6670,34.92,11111222 
COMPS,ioos:station:USF.COMPS:ARP:1,2019-07-03T18:54:00,28.4330,-82.6670,35.37,11111222 
COMPS,ioos:station:USF.COMPS:ARP:1,2019-07-03T19:54:00,28.4330,-82.6670,35.65,11111222 
COMPS,ioos:station:USF.COMPS:ARP:1,2019-07-03T20:54:00,28.4330,-82.6670,35.45,11111222 
COMPS,ioos:station:USF.COMPS:ARP:1,2019-07-03T21:54:00,28.4330,-82.6670,35.27,11111222 
COMPS,ioos:station:USF.COMPS:ARP:1,2019-07-03T22:54:00,28.4330,-82.6670,35.2,11111222 
COMPS,ioos:station:USF.COMPS:ARP:1,2019-07-03T23:54:00,28.4330,-82.6670,35.57,11111222 
COMPS,ioos:station:USF.COMPS:ARP:1,2019-07-04T00:54:00,28.4330,-82.6670,35.19,11111222 
COMPS,ioos:station:USF.COMPS:ARP:1,2019-07-04T01:54:00,28.4330,-82.6670,35.66,11111222 
COMPS,ioos:station:USF.COMPS:ARP:1,2019-07-04T02:54:00,28.4330,-82.6670,35.19,11111222 
COMPS,ioos:station:USF.COMPS:ARP:1,2019-07-04T03:54:00,28.4330,-82.6670,34.95,11111222 
COMPS,ioos:station:USF.COMPS:ARP:1,2019-07-04T04:54:00,28.4330,-82.6670,36.35,11111222 
COMPS,ioos:station:USF.COMPS:ARP:1,2019-07-04T05:54:00,28.4330,-82.6670,33.6,11111222 
COMPS,ioos:station:USF.COMPS:ARP:1,2019-07-04T06:54:00,28.4330,-82.6670,27.59,11111222 
COMPS,ioos:station:USF.COMPS:ARP:1,2019-07-04T07:54:00,28.4330,-82.6670,28.05,11111222 
COMPS,ioos:station:USF.COMPS:ARP:1,2019-07-04T08:54:00,28.4330,-82.6670,28.02,11111222 
COMPS,ioos:station:USF.COMPS:ARP:1,2019-07-04T09:54:00,28.4330,-82.6670,27.73,11111222 
COMPS,ioos:station:USF.COMPS:ARP:1,2019-07-04T10:54:00,28.4330,-82.6670,28.17,11111222 
COMPS,ioos:station:USF.COMPS:ARP:1,2019-07-04T11:54:00,28.4330,-82.6670,29.37,11111222 
COMPS,ioos:station:USF.COMPS:ARP:1,2019-07-04T12:54:00,28.4330,-82.6670,33.51,11111222 
COMPS,ioos:station:USF.COMPS:ARP:1,2019-07-04T13:54:00,28.4330,-82.6670,37.43,11111222 
COMPS,ioos:station:USF.COMPS:ARP:1,2019-07-04T14:54:00,28.4330,-82.6670,35.27,11111222 
COMPS,ioos:station:USF.COMPS:ARP:1,2019-07-04T15:54:00,28.4330,-82.6670,35.21,11111222 
COMPS,ioos:station:USF.COMPS:ARP:1,2019-07-04T16:54:00,28.4330,-82.6670,35.31,11111222 
COMPS,ioos:station:USF.COMPS:ARP:1,2019-07-04T17:54:00,28.4330,-82.6670,35.49,11111222 
COMPS,ioos:station:USF.COMPS:ARP:1,2019-07-04T18:54:00,28.4330,-82.6670,35.48,11111222 
COMPS,ioos:station:USF.COMPS:ARP:1,2019-07-04T19:54:00,28.4330,-82.6670,35.66,11111222 
COMPS,ioos:station:USF.COMPS:ARP:1,2019-07-04T20:54:00,28.4330,-82.6670,34.14,11111222 
COMPS,ioos:station:USF.COMPS:ARP:1,2019-07-04T21:54:00,28.4330,-82.6670,33.4,11111222 
COMPS,ioos:station:USF.COMPS:ARP:1,2019-07-04T22:54:00,28.4330,-82.6670,29.5,11111222 
COMPS,ioos:station:USF.COMPS:ARP:1,2019-07-04T23:54:00,28.4330,-82.6670,32.41,11111222 
COMPS,ioos:station:USF.COMPS:ARP:1,2019-07-05T00:54:00,28.4330,-82.6670,32.7,11111222 
COMPS,ioos:station:USF.COMPS:ARP:1,2019-07-05T01:54:00,28.4330,-82.6670,32.53,11111222 
COMPS,ioos:station:USF.COMPS:ARP:1,2019-07-05T02:54:00,28.4330,-82.6670,28.98,11111222 
COMPS,ioos:station:USF.COMPS:ARP:1,2019-07-05T03:54:00,28.4330,-82.6670,28.89,11111222 
COMPS,ioos:station:USF.COMPS:ARP:1,2019-07-05T04:54:00,28.4330,-82.6670,28.21,11111222 
COMPS,ioos:station:USF.COMPS:ARP:1,2019-07-05T05:54:00,28.4330,-82.6670,27.7,11111222 
COMPS,ioos:station:USF.COMPS:ARP:1,2019-07-05T06:54:00,28.4330,-82.6670,27.79,11111222 
COMPS,ioos:station:USF.COMPS:ARP:1,2019-07-05T07:54:00,28.4330,-82.6670,27.79,11111222 
COMPS,ioos:station:USF.COMPS:ARP:1,2019-07-05T08:54:00,28.4330,-82.6670,27.71,11111222 
COMPS,ioos:station:USF.COMPS:ARP:1,2019-07-05T09:54:00,28.4330,-82.6670,27.64,11111222 
COMPS,ioos:station:USF.COMPS:ARP:1,2019-07-05T10:54:00,28.4330,-82.6670,28.0,11111222 
COMPS,ioos:station:USF.COMPS:ARP:1,2019-07-05T11:54:00,28.4330,-82.6670,29.54,11111222 
COMPS,ioos:station:USF.COMPS:ARP:1,2019-07-05T12:54:00,28.4330,-82.6670,33.36,11111222 
COMPS,ioos:station:USF.COMPS:ARP:1,2019-07-05T13:54:00,28.4330,-82.6670,33.81,11111222 
COMPS,ioos:station:USF.COMPS:ARP:1,2019-07-05T14:54:00,28.4330,-82.6670,35.33,11111222 
COMPS,ioos:station:USF.COMPS:ARP:1,2019-07-05T15:54:00,28.4330,-82.6670,36.65,11111222 
COMPS,ioos:station:USF.COMPS:ARP:1,2019-07-05T16:54:00,28.4330,-82.6670,35.31,11111222 
COMPS,ioos:station:USF.COMPS:ARP:1,2019-07-05T17:54:00,28.4330,-82.6670,33.29,11111222 
COMPS,ioos:station:USF.COMPS:ARP:1,2019-07-05T18:54:00,28.4330,-82.6670,29.45,11111222 
COMPS,ioos:station:USF.COMPS:ARP:1,2019-07-05T19:54:00,28.4330,-82.6670,29.41,11111222 
COMPS,ioos:station:USF.COMPS:ARP:1,2019-07-05T20:54:00,28.4330,-82.6670,27.85,11111222 
COMPS,ioos:station:USF.COMPS:ARP:1,2019-07-05T21:54:00,28.4330,-82.6670,28.27,11111222 
COMPS,ioos:station:USF.COMPS:ARP:1,2019-07-05T22:54:00,28.4330,-82.6670,31.29,11111222 
COMPS,ioos:station:USF.COMPS:ARP:1,2019-07-05T23:54:00,28.4330,-82.6670,28.29,11111222 
COMPS,ioos:station:USF.COMPS:ARP:1,2019-07-06T00:54:00,28.4330,-82.6670,27.88,11111222 
COMPS,ioos:station:USF.COMPS:ARP:1,2019-07-06T01:54:00,28.4330,-82.6670,28.14,11111222 
COMPS,ioos:station:USF.COMPS:ARP:1,2019-07-06T02:54:00,28.4330,-82.6670,28.13,11111222 
COMPS,ioos:station:USF.COMPS:ARP:1,2019-07-06T03:54:00,28.4330,-82.6670,28.18,11111222 
COMPS,ioos:station:USF.COMPS:ARP:1,2019-07-06T04:54:00,28.4330,-82.6670,27.79,11111222 
COMPS,ioos:station:USF.COMPS:ARP:1,2019-07-06T05:54:00,28.4330,-82.6670,27.69,11111222 
COMPS,ioos:station:USF.COMPS:ARP:1,2019-07-06T06:54:00,28.4330,-82.6670,27.5,11111222 
COMPS,ioos:station:USF.COMPS:ARP:1,2019-07-06T07:54:00,28.4330,-82.6670,27.11,11111222 
COMPS,ioos:station:USF.COMPS:ARP:1,2019-07-06T08:54:00,28.4330,-82.6670,26.87,11111222 
COMPS,ioos:station:USF.COMPS:ARP:1,2019-07-06T09:54:00,28.4330,-82.6670,26.73,11111222 
COMPS,ioos:station:USF.COMPS:ARP:1,2019-07-06T10:54:00,28.4330,-82.6670,27.36,11111222 
COMPS,ioos:station:USF.COMPS:ARP:1,2019-07-06T11:54:00,28.4330,-82.6670,31.04,11111222 
COMPS,ioos:station:USF.COMPS:ARP:1,2019-07-06T12:54:00,28.4330,-82.6670,33.33,11111222 
COMPS,ioos:station:USF.COMPS:ARP:1,2019-07-06T13:54:00,28.4330,-82.6670,34.46,11111222 
COMPS,ioos:station:USF.COMPS:ARP:1,2019-07-06T14:54:00,28.4330,-82.6670,35.32,11111222 
COMPS,ioos:station:USF.COMPS:ARP:1,2019-07-06T15:54:00,28.4330,-82.6670,35.84,11111222 
COMPS,ioos:station:USF.COMPS:ARP:1,2019-07-06T16:54:00,28.4330,-82.6670,36.73,11111222 
COMPS,ioos:station:USF.COMPS:ARP:1,2019-07-06T17:54:00,28.4330,-82.6670,27.38,11111222 
COMPS,ioos:station:USF.COMPS:ARP:1,2019-07-06T18:54:00,28.4330,-82.6670,27.84,11111222 
COMPS,ioos:station:USF.COMPS:ARP:1,2019-07-06T19:54:00,28.4330,-82.6670,31.01,11111222 
COMPS,ioos:station:USF.COMPS:ARP:1,2019-07-06T20:54:00,28.4330,-82.6670,31.38,11111222 
COMPS,ioos:station:USF.COMPS:ARP:1,2019-07-06T21:54:00,28.4330,-82.6670,32.09,11111222 
COMPS,ioos:station:USF.COMPS:ARP:1,2019-07-06T22:54:00,28.4330,-82.6670,32.44,11111222 
COMPS,ioos:station:USF.COMPS:ARP:1,2019-07-06T23:54:00,28.4330,-82.6670,32.07,11111222 
COMPS,ioos:station:USF.COMPS:ARP:1,2019-07-07T00:54:00,28.4330,-82.6670,28.11,11111222 
COMPS,ioos:station:USF.COMPS:ARP:1,2019-07-07T01:54:00,28.4330,-82.6670,27.86,11111222 
COMPS,ioos:station:USF.COMPS:ARP:1,2019-07-07T02:54:00,28.4330,-82.6670,27.68,11111222 
COMPS,ioos:station:USF.COMPS:ARP:1,2019-07-07T03:54:00,28.4330,-82.6670,27.94,11111222 
COMPS,ioos:station:USF.COMPS:ARP:1,2019-07-07T04:54:00,28.4330,-82.6670,29.02,11111222 
COMPS,ioos:station:USF.COMPS:ARP:1,2019-07-07T05:54:00,28.4330,-82.6670,30.65,11111222 
COMPS,ioos:station:USF.COMPS:ARP:1,2019-07-07T06:54:00,28.4330,-82.6670,26.89,11111222 
COMPS,ioos:station:USF.COMPS:ARP:1,2019-07-07T07:54:00,28.4330,-82.6670,27.14,11111222 
COMPS,ioos:station:USF.COMPS:ARP:1,2019-07-07T08:54:00,28.4330,-82.6670,28.9,11111222 
COMPS,ioos:station:USF.COMPS:ARP:1,2019-07-07T09:54:00,28.4330,-82.6670,31.47,11111222 
COMPS,ioos:station:USF.COMPS:ARP:1,2019-07-07T10:54:00,28.4330,-82.6670,31.83,11111222 
COMPS,ioos:station:USF.COMPS:ARP:1,2019-07-07T11:54:00,28.4330,-82.6670,31.58,11111222 
COMPS,ioos:station:USF.COMPS:ARP:1,2019-07-07T12:54:00,28.4330,-82.6670,33.57,11111222 
COMPS,ioos:station:USF.COMPS:ARP:1,2019-07-07T13:54:00,28.4330,-82.6670,32.35,11111222 
COMPS,ioos:station:USF.COMPS:ARP:1,2019-07-07T14:54:00,28.4330,-82.6670,33.14,11111222 
COMPS,ioos:station:USF.COMPS:ARP:1,2019-07-07T15:54:00,28.4330,-82.6670,32.83,11111222 
COMPS,ioos:station:USF.COMPS:ARP:1,2019-07-07T16:54:00,28.4330,-82.6670,32.84,11111222 
COMPS,ioos:station:USF.COMPS:ARP:1,2019-07-07T17:54:00,28.4330,-82.6670,33.25,11111222 
COMPS,ioos:station:USF.COMPS:ARP:1,2019-07-07T18:54:00,28.4330,-82.6670,33.59,11111222 
COMPS,ioos:station:USF.COMPS:ARP:1,2019-07-07T19:54:00,28.4330,-82.6670,34.51,11111222 
COMPS,ioos:station:USF.COMPS:ARP:1,2019-07-07T20:54:00,28.4330,-82.6670,34.12,11111222 
COMPS,ioos:station:USF.COMPS:ARP:1,2019-07-07T21:54:00,28.4330,-82.6670,34.05,11111222 
COMPS,ioos:station:USF.COMPS:ARP:1,2019-07-07T22:54:00,28.4330,-82.6670,33.97,11111222 
COMPS,ioos:station:USF.COMPS:ARP:1,2019-07-07T23:54:00,28.4330,-82.6670,33.79,11111222 
COMPS,ioos:station:USF.COMPS:ARP:1,2019-07-08T00:54:00,28.4330,-82.6670,32.42,11111222 
COMPS,ioos:station:USF.COMPS:ARP:1,2019-07-08T01:54:00,28.4330,-82.6670,32.42,11111222 
COMPS,ioos:station:USF.COMPS:ARP:1,2019-07-08T02:54:00,28.4330,-82.6670,31.74,11111222 
COMPS,ioos:station:USF.COMPS:ARP:1,2019-07-08T03:54:00,28.4330,-82.6670,31.54,11111222 
COMPS,ioos:station:USF.COMPS:ARP:1,2019-07-08T04:54:00,28.4330,-82.6670,27.91,11111222 
COMPS,ioos:station:USF.COMPS:ARP:1,2019-07-08T05:54:00,28.4330,-82.6670,28.41,11111222 
COMPS,ioos:station:USF.COMPS:ARP:1,2019-07-08T06:54:00,28.4330,-82.6670,28.34,11111222 
COMPS,ioos:station:USF.COMPS:ARP:1,2019-07-08T07:54:00,28.4330,-82.6670,27.99,11111222 
COMPS,ioos:station:USF.COMPS:ARP:1,2019-07-08T08:54:00,28.4330,-82.6670,26.69,11111222 
COMPS,ioos:station:USF.COMPS:ARP:1,2019-07-08T09:54:00,28.4330,-82.6670,26.21,11111222 
COMPS,ioos:station:USF.COMPS:ARP:1,2019-07-08T10:54:00,28.4330,-82.6670,27.07,11111222 
COMPS,ioos:station:USF.COMPS:ARP:1,2019-07-08T11:54:00,28.4330,-82.6670,27.49,11111222 
COMPS,ioos:station:USF.COMPS:ARP:1,2019-07-08T12:54:00,28.4330,-82.6670,29.2,11111222 
COMPS,ioos:station:USF.COMPS:ARP:1,2019-07-08T13:54:00,28.4330,-82.6670,32.02,11111222 
COMPS,ioos:station:USF.COMPS:ARP:1,2019-07-08T14:54:00,28.4330,-82.6670,32.9,11111222 
COMPS,ioos:station:USF.COMPS:ARP:1,2019-07-08T15:54:00,28.4330,-82.6670,32.77,11111222 
COMPS,ioos:station:USF.COMPS:ARP:1,2019-07-08T16:54:00,28.4330,-82.6670,33.43,11111222 
COMPS,ioos:station:USF.COMPS:ARP:1,2019-07-08T17:54:00,28.4330,-82.6670,34.02,11111222 
COMPS,ioos:station:USF.COMPS:ARP:1,2019-07-08T18:54:00,28.4330,-82.6670,34.22,11111222 
COMPS,ioos:station:USF.COMPS:ARP:1,2019-07-08T19:54:00,28.4330,-82.6670,34.49,11111222 
COMPS,ioos:station:USF.COMPS:ARP:1,2019-07-08T20:54:00,28.4330,-82.6670,35.03,11111222 
COMPS,ioos:station:USF.COMPS:ARP:1,2019-07-08T21:54:00,28.4330,-82.6670,35.1,11111222 
COMPS,ioos:station:USF.COMPS:ARP:1,2019-07-08T22:54:00,28.4330,-82.6670,35.03,11111222 
COMPS,ioos:station:USF.COMPS:ARP:1,2019-07-08T23:54:00,28.4330,-82.6670,33.97,11111222 
COMPS,ioos:station:USF.COMPS:ARP:1,2019-07-09T00:54:00,28.4330,-82.6670,33.64,11111222 
COMPS,ioos:station:USF.COMPS:ARP:1,2019-07-09T01:54:00,28.4330,-82.6670,30.95,11111222 
COMPS,ioos:station:USF.COMPS:ARP:1,2019-07-09T02:54:00,28.4330,-82.6670,33.73,11111222 
COMPS,ioos:station:USF.COMPS:ARP:1,2019-07-09T03:54:00,28.4330,-82.6670,34.39,11111222 
COMPS,ioos:station:USF.COMPS:ARP:1,2019-07-09T04:54:00,28.4330,-82.6670,34.71,11111222 
COMPS,ioos:station:USF.COMPS:ARP:1,2019-07-09T05:54:00,28.4330,-82.6670,34.51,11111222 
COMPS,ioos:station:USF.COMPS:ARP:1,2019-07-09T06:54:00,28.4330,-82.6670,34.25,11111222 
COMPS,ioos:station:USF.COMPS:ARP:1,2019-07-09T07:54:00,28.4330,-82.6670,32.83,11111222 
COMPS,ioos:station:USF.COMPS:ARP:1,2019-07-09T08:54:00,28.4330,-82.6670,32.39,11111222 
COMPS,ioos:station:USF.COMPS:ARP:1,2019-07-09T09:54:00,28.4330,-82.6670,28.29,11111222 
COMPS,ioos:station:USF.COMPS:ARP:1,2019-07-09T10:54:00,28.4330,-82.6670,28.8,11111222 
COMPS,ioos:station:USF.COMPS:ARP:1,2019-07-09T11:54:00,28.4330,-82.6670,30.12,11111222 
COMPS,ioos:station:USF.COMPS:ARP:1,2019-07-09T12:54:00,28.4330,-82.6670,33.16,11111222 
COMPS,ioos:station:USF.COMPS:ARP:1,2019-07-09T13:54:00,28.4330,-82.6670,32.94,11111222 
COMPS,ioos:station:USF.COMPS:ARP:1,2019-07-09T14:54:00,28.4330,-82.6670,34.11,11111222 
COMPS,ioos:station:USF.COMPS:ARP:1,2019-07-09T15:54:00,28.4330,-82.6670,32.92,11111222 
COMPS,ioos:station:USF.COMPS:ARP:1,2019-07-09T16:54:00,28.4330,-82.6670,28.55,11111222 
COMPS,ioos:station:USF.COMPS:ARP:1,2019-07-09T17:54:00,28.4330,-82.6670,30.81,11111222 
COMPS,ioos:station:USF.COMPS:ARP:1,2019-07-09T18:54:00,28.4330,-82.6670,32.25,11111222 
COMPS,ioos:station:USF.COMPS:ARP:1,2019-07-09T19:54:00,28.4330,-82.6670,32.25,11111222 
COMPS,ioos:station:USF.COMPS:ARP:1,2019-07-09T20:54:00,28.4330,-82.6670,33.47,11111222 
COMPS,ioos:station:USF.COMPS:ARP:1,2019-07-09T21:54:00,28.4330,-82.6670,32.99,11111222 
COMPS,ioos:station:USF.COMPS:ARP:1,2019-07-09T22:54:00,28.4330,-82.6670,33.06,11111222 
COMPS,ioos:station:USF.COMPS:ARP:1,2019-07-09T23:54:00,28.4330,-82.6670,32.47,11111222 
COMPS,ioos:station:USF.COMPS:ARP:1,2019-07-10T00:54:00,28.4330,-82.6670,32.73,11111222 
COMPS,ioos:station:USF.COMPS:ARP:1,2019-07-10T01:54:00,28.4330,-82.6670,31.04,11111222 
COMPS,ioos:station:USF.COMPS:ARP:1,2019-07-10T02:54:00,28.4330,-82.6670,32.25,11111222 
COMPS,ioos:station:USF.COMPS:ARP:1,2019-07-10T03:54:00,28.4330,-82.6670,31.42,11111222 
COMPS,ioos:station:USF.COMPS:ARP:1,2019-07-10T04:54:00,28.4330,-82.6670,31.28,11111222 
COMPS,ioos:station:USF.COMPS:ARP:1,2019-07-10T05:54:00,28.4330,-82.6670,31.75,11111222 
COMPS,ioos:station:USF.COMPS:ARP:1,2019-07-10T06:54:00,28.4330,-82.6670,31.62,11111222 
COMPS,ioos:station:USF.COMPS:ARP:1,2019-07-10T07:54:00,28.4330,-82.6670,27.73,11111222 
COMPS,ioos:station:USF.COMPS:ARP:1,2019-07-10T08:54:00,28.4330,-82.6670,28.03,11111222 
COMPS,ioos:station:USF.COMPS:ARP:1,2019-07-10T09:54:00,28.4330,-82.6670,28.14,11111222 
COMPS,ioos:station:USF.COMPS:ARP:1,2019-07-10T10:54:00,28.4330,-82.6670,28.21,11111222 
COMPS,ioos:station:USF.COMPS:ARP:1,2019-07-10T11:54:00,28.4330,-82.6670,28.08,11111222 
COMPS,ioos:station:USF.COMPS:ARP:1,2019-07-10T12:54:00,28.4330,-82.6670,31.85,11111222 
COMPS,ioos:station:USF.COMPS:ARP:1,2019-07-10T13:54:00,28.4330,-82.6670,32.73,11111222 
COMPS,ioos:station:USF.COMPS:ARP:1,2019-07-10T14:54:00,28.4330,-82.6670,28.8,11111222 
COMPS,ioos:station:USF.COMPS:ARP:1,2019-07-10T15:54:00,28.4330,-82.6670,31.64,11111222 
COMPS,ioos:station:USF.COMPS:ARP:1,2019-07-10T16:54:00,28.4330,-82.6670,33.24,11111222 
COMPS,ioos:station:USF.COMPS:ARP:1,2019-07-10T17:54:00,28.4330,-82.6670,33.18,11111222 
COMPS,ioos:station:USF.COMPS:ARP:1,2019-07-10T18:54:00,28.4330,-82.6670,33.48,11111222 
COMPS,ioos:station:USF.COMPS:ARP:1,2019-07-10T19:54:00,28.4330,-82.6670,34.65,11111222 
COMPS,ioos:station:USF.COMPS:ARP:1,2019-07-10T20:54:00,28.4330,-82.6670,33.65,11111222 
COMPS,ioos:station:USF.COMPS:ARP:1,2019-07-10T21:54:00,28.4330,-82.6670,34.57,11111222 
COMPS,ioos:station:USF.COMPS:ARP:1,2019-07-10T22:54:00,28.4330,-82.6670,34.33,11111222 
COMPS,ioos:station:USF.COMPS:ARP:1,2019-07-10T23:54:00,28.4330,-82.6670,33.83,11111222 
COMPS,ioos:station:USF.COMPS:ARP:1,2019-07-11T00:54:00,28.4330,-82.6670,34.83,11111222 
COMPS,ioos:station:USF.COMPS:ARP:1,2019-07-11T01:54:00,28.4330,-82.6670,33.15,11111222 
COMPS,ioos:station:USF.COMPS:ARP:1,2019-07-11T02:54:00,28.4330,-82.6670,29.78,11111222 
COMPS,ioos:station:USF.COMPS:ARP:1,2019-07-11T03:54:00,28.4330,-82.6670,29.25,11111222 
COMPS,ioos:station:USF.COMPS:ARP:1,2019-07-11T04:54:00,28.4330,-82.6670,29.84,11111222 
COMPS,ioos:station:USF.COMPS:ARP:1,2019-07-11T05:54:00,28.4330,-82.6670,28.66,11111222 
COMPS,ioos:station:USF.COMPS:ARP:1,2019-07-11T06:54:00,28.4330,-82.6670,28.16,11111222 
COMPS,ioos:station:USF.COMPS:ARP:1,2019-07-11T07:54:00,28.4330,-82.6670,27.75,11111222 
COMPS,ioos:station:USF.COMPS:ARP:1,2019-07-11T08:54:00,28.4330,-82.6670,27.49,11111222 
COMPS,ioos:station:USF.COMPS:ARP:1,2019-07-11T09:54:00,28.4330,-82.6670,27.32,11111222 
COMPS,ioos:station:USF.COMPS:ARP:1,2019-07-11T10:54:00,28.4330,-82.6670,27.58,11111222 
COMPS,ioos:station:USF.COMPS:ARP:1,2019-07-11T11:54:00,28.4330,-82.6670,28.64,11111222 
COMPS,ioos:station:USF.COMPS:ARP:1,2019-07-11T12:54:00,28.4330,-82.6670,32.75,11111222 
COMPS,ioos:station:USF.COMPS:ARP:1,2019-07-11T13:54:00,28.4330,-82.6670,33.84,11111222 
COMPS,ioos:station:USF.COMPS:ARP:1,2019-07-11T14:54:00,28.4330,-82.6670,32.95,11111222 
COMPS,ioos:station:USF.COMPS:ARP:1,2019-07-11T15:54:00,28.4330,-82.6670,32.21,11111222 
COMPS,ioos:station:USF.COMPS:ARP:1,2019-07-11T16:54:00,28.4330,-82.6670,35.7,11111222 
COMPS,ioos:station:USF.COMPS:ARP:1,2019-07-11T17:54:00,28.4330,-82.6670,35.17,11111222 
COMPS,ioos:station:USF.COMPS:ARP:1,2019-07-11T18:54:00,28.4330,-82.6670,30.58,11111222 
COMPS,ioos:station:USF.COMPS:ARP:1,2019-07-11T19:54:00,28.4330,-82.6670,32.27,11111222 
COMPS,ioos:station:USF.COMPS:ARP:1,2019-07-11T20:54:00,28.4330,-82.6670,30.6,11111222 
COMPS,ioos:station:USF.COMPS:ARP:1,2019-07-11T21:54:00,28.4330,-82.6670,31.57,11111222 
COMPS,ioos:station:USF.COMPS:ARP:1,2019-07-11T22:54:00,28.4330,-82.6670,31.63,11111222 
COMPS,ioos:station:USF.COMPS:ARP:1,2019-07-11T23:54:00,28.4330,-82.6670,32.04,11111222 
COMPS,ioos:station:USF.COMPS:ARP:1,2019-07-12T00:54:00,28.4330,-82.6670,31.82,11111222 
COMPS,ioos:station:USF.COMPS:ARP:1,2019-07-12T01:54:00,28.4330,-82.6670,27.86,11111222 
COMPS,ioos:station:USF.COMPS:ARP:1,2019-07-12T02:54:00,28.4330,-82.6670,28.03,11111222 
COMPS,ioos:station:USF.COMPS:ARP:1,2019-07-12T03:54:00,28.4330,-82.6670,28.1,11111222 
COMPS,ioos:station:USF.COMPS:ARP:1,2019-07-12T04:54:00,28.4330,-82.6670,27.91,11111222 
COMPS,ioos:station:USF.COMPS:ARP:1,2019-07-12T05:54:00,28.4330,-82.6670,28.02,11111222 
COMPS,ioos:station:USF.COMPS:ARP:1,2019-07-12T06:54:00,28.4330,-82.6670,27.56,11111222 
COMPS,ioos:station:USF.COMPS:ARP:1,2019-07-12T07:54:00,28.4330,-82.6670,27.27,11111222 
COMPS,ioos:station:USF.COMPS:ARP:1,2019-07-12T08:54:00,28.4330,-82.6670,27.18,11111222 